Tracking 19193 objects as of 24-Jun-2018
HD Live streaming from Space Station
objects crossing your sky now

FENGYUN 1C DEB

Track FENGYUN 1C DEB now!
10-day predictions


NORAD ID: 31465
Int'l Code: 1999-025BVD
Perigee: 802.5 km
Apogee: 985.9 km
Inclination: 98.6 °
Period: 102.7 minutes
Semi major axis: 7265 km
RCS: 0.0157 m2 (small)
Launch date: May 10, 1999
Source: People's Republic of China (PRC)
Launch site: Taiyaun Space Center, China (TSC)

Note: This is SATELLITE DEBRIS
aabbcc
Your satellite tracking list
Your tracking list is empty




NASA's NSSDC Master Catalog

Two Line Element Set (TLE):
1 31465U 99025BVD 18174.14894541 +.00000285 +00000-0 +19971-3 0  9996
2 31465 098.6400 296.4582 0126242 024.6662 336.0471 14.01947448566145
Source of the keplerian elements: AFSPC